Notices

What's New in latest Release from April 7th, 2021:

- Updated Glossary, including Speed of Maximum Gust, and Total Hourly Precipitation

- Updated national and regional climate services offices contacts and prices information

- Addition of station inventory lists for 1981-2010, 1971-2000, and 1961-1990 Normals.

If you haven't already, please take our survey and provide feedback about our website: https://eccc.sondage-survey.ca/f/LanguageSelection.aspx?s=442ca660-fcf1-47c0-95a9-59707d6fd709

Hourly Data Report for March 26, 2021

NANAIMO A
BRITISH COLUMBIA
Current Station Operator: NAVCAN

49°03'16.000" N
123°52'12.000" W
28.00 m
1025365
YCD

Download Data

Hourly Data (March 2021)
Hourly Data Report for March 26, 2021
TIME
LST
Temp Definition
°C
Dew Point Definition
°C
Rel Hum Definition
%
Precip. Amount Definition
mm

Wind Dir Definition
10's deg

Wind Spd Definition
km/h
Visibility Definition
km
Stn Press Definition
kPa
Hmdx Definition


Wind Chill Definition


Weather Definition


00:00 3.8 0.9 82 LegendMM 27 8 LegendMM 101.58     LegendNANA
01:00 2.2 1.0 92 LegendMM 19 5 LegendMM 101.60     LegendNANA
02:00 1.7 0.3 91 LegendMM 26 4 LegendMM 101.65     LegendNANA
03:00 3.1 0.4 83 LegendMM 28 8 LegendMM 101.70     LegendNANA
04:00 0.3 -0.4 95 LegendMM 17 3 LegendMM 101.72     LegendNANA
05:00 0.8 -1.6 84 LegendMM 22 2 LegendMM 101.73     LegendNANA
06:00 0.9 0.1 95 LegendMM 24 5 LegendMM 101.81     LegendNANA
07:00 1.1 0.5 95 LegendMM 21 4 LegendMM 101.90     LegendNANA
08:00 5.5 2.7 82 LegendMM 5 4 LegendMM 101.94     LegendNANA
09:00 8.6 1.4 61 LegendMM 15 5 LegendMM 102.00     LegendNANA
10:00 10.6 1.6 53 LegendMM 12 2 LegendMM 102.03     LegendNANA
11:00 10.9 2.0 54 LegendMM 17 14 LegendMM 102.03     LegendNANA
12:00 11.7 2.8 55 LegendMM 16 15 LegendMM 102.02     LegendNANA
13:00 11.9 3.2 55 LegendMM 5 17 LegendMM 102.04     LegendNANA
14:00 12.3 4.7 59 LegendMM 5 12 LegendMM 102.06     LegendNANA
15:00 10.8 3.9 62 LegendMM 9 9 LegendMM 102.12     LegendNANA
16:00 10.6 4.3 65 LegendMM 10 10 LegendMM 102.15     LegendNANA
17:00 10.2 4.5 67 LegendMM 13 9 LegendMM 102.15     LegendNANA
18:00 9.4 4.7 72 LegendMM 17 7 LegendMM 102.18     LegendNANA
19:00 6.6 4.1 84 LegendMM 2 7 LegendMM 102.20     LegendNANA
20:00 6.6 4.7 87 LegendMM 29 4 LegendMM 102.25     LegendNANA
21:00 5.0 3.8 92 LegendMM 0 1 LegendMM 102.31     LegendNANA
22:00 4.8 4.2 96 LegendMM 27 8 LegendMM 102.38     LegendNANA
23:00 4.0 3.3 95 LegendMM 24 7 LegendMM 102.42     LegendNANA

Notes on Data Quality.

Legend

  • E = Estimated
  • M = Missing
  • NA = Not Available*
  • [empty] = Indicates an unobserved value
Date modified: